Location: Newark
(45.9456°N, 15.4064°E)
Time: 18:19:47
(UTC+00:00)

Vanguard 3 - Pass Details

Date: 02 February 2020
Orbit: 508 x 3263 km, 33.3° (Epoch: 17 February)

Event Time Altitude Azimuth Distance (km) Brightness Sun altitude
Rises 21:29:51 0° 277° (W) 7,160 12.4 -53.9°
Reaches altitude 10° 21:38:23 10° 258° (WSW) 5,815 11.6 -54.9°
Maximum altitude 21:45:38 14° 233° (SW) 5,006 11.1 -55.7°
Enters shadow 21:46:13 14° 230° (SW) 4,965 11.0 -55.8°
Drops below altitude 10° 21:51:53 10° 206° (SSW) 4,830 - -56.4°
Sets 21:57:42 0° 184° (S) 5,239 - -57.0°
